Terminal Aerodrome Forecast
Issued by NWS Raleigh/Durham, NC

Home | Current Version | Previous Version | Text Only | Print | Product List | Glossary On
Versions: 1 2 3 4 5 6 7 8 9 10 11 12 13 14 15 16 17 18 19 20 21 22 23 24 25 26 27 28 29 30 31 32 33 34 35 36 37 38 39 40 41 42
000
FTUS42 KRAH 211140
TAFRDU
TAF
KRDU 211140Z 2112/2212 26007KT P6SM FEW110 SCT250
     FM212100 28009G16KT P6SM BKN060
     FM220000 33007KT P6SM SCT060 BKN080=

USA.gov is the U.S. government's official web portal to all federal, state and local government web resources and services.